Regional Weather Roundup
Issued by NWS

Home | Current Version | Previous Version | Text Only | Print | Product List | Glossary Off
Versions: 1 2 3 4 5 6 7 8 9 10 11 12 13 14 15 16 17 18 19 20 21 22 23 24 25 26 27 28 29 30 31 32 33 34 35 36 37 38 39 40 41 42 43 44 45 46 47 48 49 50

000
ASUS43 KLOT 071900
RWRIL

ILLINOIS REGIONAL WEATHER ROUNDUP
NATIONAL WEATHER SERVICE CHICAGO/ROMEOVILLE IL
200 PM CDT TUE JUL 07 2015

NOTE: "FAIR" INDICATES FEW OR NO CLOUDS BELOW 12,000 FEET WITH NO
SIGNIFICANT WEATHER AND/OR OBSTRUCTIONS TO VISIBILITY.

* THESE STATIONS ARE NOT UNDER NWS QUALITY CONTROL. THEY ALSO MAY NOT
  REPORT WEATHER SUCH AS PRECIPITATION OR FOG.

ILZ001-002-007-009-015-016-024-072000-
NORTHWEST ILLINOIS

CITY           SKY/WX    TMP DP  RH WIND       PRES   REMARKS
MOLINE         MOSUNNY   72  55  55 N12       30.03S HAZE
STERLING*      CLOUDY    73  59  60 NE12G18   30.03S
$$

ILZ003-004-008-010-011-017-018-072000-
NORTH CENTRAL ILLINOIS

CITY           SKY/WX    TMP DP  RH WIND       PRES   REMARKS
ROCKFORD       CLOUDY    70  53  54 N14       30.05R
$$

ILZ005-006-012>014-019>023-072000-
NORTHEAST ILLINOIS

CITY           SKY/WX    TMP DP  RH WIND       PRES   REMARKS
CHICAGO-OHARE  MOSUNNY   67  46  47 NE20G28   30.03R
CHICAGO-MIDWAY MOSUNNY   68  46  45 NE22G29   30.03R
AURORA         PTSUNNY   71  55  56 N7        30.02S
WAUKEGAN       SUNNY     64  48  56 N21G30    30.03R
DUPAGE AIRPORT PTSUNNY   71  53  52 N13       30.02R
WHEELING       SUNNY     66  45  46 N15G24    30.05R
NORTHERLY ISL    N/A     62  52  69 MISG        N/A
$$

LMZ740>746-072000-
SOUTHERN LAKE MICHIGAN

STATION/POSITION SKY/WX   TEMP    WIND        PRES    VSBY  WAVE
                          AIR SEA DIR/SP/G                  HT/PER
                          (F)     (DEG/KT/KT) (MB)    (MI)  (FT/S)
HARRISON CRIB              58     360/ 25/ 29   N/A
BURNHAM HARBOR             62     360/ 19/ 20   N/A
CALUMET HARBOR             61     350/ 13/ 20   N/A
BURNS HARBOR               59      10/ 18/ 23 1017.3R
MICHIGAN CITY              59     350/ 23/ 26   N/A
MICHIGAN CITY 6N           60 65   10/ 17/ 23   N/A           8/ 7
ST. JOSEPH                 60 64   30/ 19/ 23   N/A           8/ 2
$$

ILZ025>027-034>036-040-047-049-050-058-095>099-072000-
WEST-CENTRAL ILLINOIS

CITY           SKY/WX    TMP DP  RH WIND       PRES   REMARKS
QUINCY         CLOUDY    70  60  70 NE14      30.04S HAZE
MACOMB*        CLOUDY    70  61  73 N7        30.05S HAZE
$$

ILZ028>032-037-038-041>044-048-051>054-059>061-072000-
CENTRAL ILLINOIS

CITY           SKY/WX    TMP DP  RH WIND       PRES   REMARKS
DECATUR        CLOUDY    63  60  90 N12       30.01R
PEORIA         CLOUDY    68  61  78 NE6       30.04R
SPRINGFIELD    CLOUDY    69  61  75 N14G21    30.02R
TAYLORVILLE    NOT AVBL
$$

ILZ033-039-045-046-055>057-062-063-072000-
EAST-CENTRAL ILLINOIS

CITY           SKY/WX    TMP DP  RH WIND       PRES   REMARKS
CHAMPAIGN      LGT RAIN  61  59  93 N13G23    29.99R FOG
MATTOON        CLOUDY    65  64  97 N17       29.97R FOG
$$

ILZ079-100>102-072000-
SOUTHWEST ILLINOIS

CITY           SKY/WX    TMP DP  RH WIND       PRES   REMARKS
ALTON          CLOUDY    70 N/A N/A N9        30.00S
BELLEVILLE     CLOUDY    73  73  97 VRB6      29.97R
CAHOKIA*       CLOUDY    72  67  84 N9        29.99R HAZE
SPARTA*        LGT RAIN  78  73  85 SW3       29.98S HX  81
$$

ILZ064>066-069>071-074>076-080>082-084>086-088>090-092>094-072000-
SOUTH-CENTRAL ILLINOIS

CITY           SKY/WX    TMP DP  RH WIND       PRES   REMARKS
CARBONDALE     LGT RAIN  75  72  90 SW6       29.97F
MARION         LGT RAIN  77  75  94 SW12      29.98F
MT. VERNON     CLOUDY    79  70  73 SW7       29.97F HX  81
SALEM*         CLOUDY    80  72  75 SW9       29.96F HX  84
$$

ILZ067-068-072-073-078-083-087-091-072000-
SOUTHEAST ILLINOIS

CITY           SKY/WX    TMP DP  RH WIND       PRES   REMARKS
LAWRENCEVILLE  CLOUDY    79  73  82 SW16      29.94S HX  82
HARRISBURG*    CLOUDY    77  76  96 S6        29.99S
$$

ABBREVIATIONS USED IN REMARKS
   TC - TEMPERATURE IN CELSIUS
  WCI - WIND CHILL INDEX
   HX - HEAT INDEX
  VSB - VISIBILITY
$$




USA.gov is the U.S. government's official web portal to all federal, state and local government web resources and services.